User: anonymous
Location: Unspecified
(0.0000°N, 0.0000°E)
Time: 20:13:45
(UTC+02:00)
Language:

Cosmos 1437 - Orbit

View from above orbital plane
View from above orbital plane
View from above satellite
View from above satellite

Ground track
Ground track

The orbit data is extracted from the following two-line orbital elements,

1 13770U 83003A   14264.14391182  .00008491  00000-0  27091-3 0  6584
2 13770 081.1628 281.7339 0011894 144.1138 279.2231 15.32295083732268
Epoch (UTC): 21 September 2014 03:27:13
Eccentricity: 0.0011894
inclination: 81.1628°
perigee height: 461 km
apogee height: 477 km
right ascension of ascending node: 281.7339°
argument of perigee: 144.1138°
revolutions per day: 15.32295083
mean anomaly at epoch: 279.2231°
orbit number at epoch: 73226

The dashed part of the orbit path shows where the satellite is in the earth's shadow,  

DLR